Skip Page Navigation
NASA JPL Caltech
NASA Logo - Jet Propulsion Laboratory + View the NASA Portal
+ Center for Near-Earth Object Studies
JPL Home Earth Solar System Stars & Galaxies Technology
JPL Solar System Dynamics
BODIES ORBITS EPHEMERIDES TOOLS PHYSICAL DATA DISCOVERY FAQ SITE MAP
JPL Small-Body Database Browser
Search: [ help ]  
158 Koronis (A876 AA)
Classification: Main-belt Asteroid          SPK-ID: 2000158
Ephemeris | Orbit Diagram | Orbital Elements | Mission Design | Physical Parameters | Discovery Circumstances ]

[ hide orbit diagram ]
Orbit Diagram
[ switch to new HTML5 viewer ]

Note: This Java-based orbit viewer will eventually be retired.

Note: Make sure you have Java enabled on your browser to see the applet. This applet is provided as a 3D orbit visualization tool. The applet was implemented using two-body methods, and hence should not be used for determining accurate long-term trajectories (over several years or decades) or planetary encounter circumstances. For accurate long-term ephemerides, please instead use our Horizons system.

Note: If the applet is not working, here are some notes that might help.
Orbit Viewer

Additional Notes: the orbits shown in the applet are color coded. The planets are white lines, and the asteroid/comet is a blue line. The bright white line indicates the portion of the orbit that is above the ecliptic plane, and the darker portion is below the ecliptic plane. Likewise for the asteroid/comet orbit, the light blue indicates the portion above the ecliptic plane, and the dark blue the portion below the ecliptic plane.

Orbit Viewer applet originally written and kindly provided by Osamu Ajiki (AstroArts), and further modified by Ron Baalke (JPL).


Orbital Elements at Epoch 2459000.5 (2020-May-31.0) TDB
Reference: JPL 33 (heliocentric ecliptic J2000)
 Element Value Uncertainty (1-sigma)   Units 
e .05207514623591673 3.6634e-08  
a 2.867791220031913 1.0594e-08 au
q 2.718450572874673 1.0501e-07 au
i 1.005670746587158 4.1185e-06 deg
node 277.7032749195013 0.0002444 deg
peri 146.4082096094889 0.00024811 deg
M 295.2741263963078 4.2927e-05 deg
tp 2459319.429831259266
(2021-Apr-14.92983126)
0.00021181 TDB
period 1773.861562013531
4.86
9.8291e-06
2.691e-08
d
yr
n .2029470662814069 1.1245e-09 deg/d
Q 3.017131867189153 1.1145e-08 au
  Orbit Determination Parameters
   # obs. used (total)      2932  
   data-arc span      46378 days (126.98 yr)  
   first obs. used      1893-08-12  
   last obs. used      2020-08-04  
   planetary ephem.      DE431  
   SB-pert. ephem.      SB431-N16  
   condition code      0  
   norm. resid. RMS      .46909  
   source      ORB  
   producer      Otto Matic  
   solution date      2020-Aug-24 22:11:01  

Additional Information
 Earth MOID = 1.73168 au 
 Jupiter MOID = 2.14758 au 
 T_jup = 3.297 
[ show covariance matrix ]

Ephemeris | Orbit Diagram | Orbital Elements | Mission Design | Physical Parameters | Discovery Circumstances ]

Physical Parameter Table
Parameter Symbol Value Units Sigma Reference Notes
absolute magnitude H 9.2   n/a MPO492750 IRAS observations used: 11
diameter diameter 39.025 km 0.462 urn:nasa:pds:neowise_diameters_albedos::2.0[mainbelt] (http://adsabs.harvard.edu/abs/2014ApJ...791..121M)  
rotation period rot_per 14.218 h n/a LCDB (Rev. 2019-August); Warner et al., 2009 Published Reference List:
[Binzel, R.P. (1987) Icarus 72, 135-208.]
[Slivan, S.M.; Binzel, R.P. (1996) Icarus 124, 452-470.]
[Slivan, S.M.; Binzel, R.P.; Crespo da Silva, L.D.; Kaasalainen, M.; et al. (2003) Icarus 162, 285-307.]
[Buchheim, R.K. (2011) Minor Planet Bull. 38, 128-130.]
[Durech, J.; Kaasalainen, M.; Herald, D.; Dunham, D.; et al. (2011) Icarus 214, 652-670.]
[Klinglesmith III, D.A.; Hanowell, J.; Risely, E.; Turk, J.; et al. (2013) Minor Planet Bull. 40, 190-193.]
geometric albedo albedo 0.213   0.037 urn:nasa:pds:neowise_diameters_albedos::2.0[mainbelt] (http://adsabs.harvard.edu/abs/2014ApJ...791..121M)  
B-V BV 0.859   0.019 EAR-A-5-DDR-UBV-MEAN-VALUES-V1.2 #obs=4; phase (min.=11.71, mean=12.72, max.=13.87) deg.
U-B UB 0.394   0.024 EAR-A-5-DDR-UBV-MEAN-VALUES-V1.2 #obs=5; phase (min.=11.71, mean=14.34, max.=20.84) deg.
Tholen spectral type spec_T S   n/a EAR-A-5-DDR-TAXONOMY-V4.0 used 7 color indices; used ground-based radiometric albedo
SMASSII spectral type spec_B S   n/a EAR-A-5-DDR-TAXONOMY-V4.0 based on a high-resolution spectrum by Xu et al. (1995) or Bus and Binzel (2002)

158 Koronis (A876 AA)          Discovered 1876-Jan-04 by Knorre, V. at Berlin
Reference: DISCOVERY.DBLast Updated: 2003-08-29

Alternate Designations
 A876 AA = 1955 HA1 = A893 PA = A911 HB 
Ephemeris | Orbit Diagram | Orbital Elements | Mission Design | Physical Parameters | Discovery Circumstances ]
ABOUT SSD CREDITS/AWARDS PRIVACY/COPYRIGHT GLOSSARY LINKS
FirstGov 2020-Oct-27 06:26 UT
(server date/time)  
NASA Home Page
Site Manager:   Ryan S. Park
Webmaster  Alan B. Chamberlin